Location: Newark
(45.8667°N, 9.7333°E)
Time: 12:19:03
(UTC+00:00)

AO-73 - Pass Details

Date: 23 February 2020
Orbit: 581 x 664 km, 97.6° (Epoch: 05 April)

Event Time Altitude Azimuth Distance (km) Brightness Sun altitude
Rises 04:56:17 0° 21° (NNE) 3,013 ? -13.8°
Reaches altitude 10° 04:58:42 10° 30° (NNE) 2,093 ? -13.4°
Maximum altitude 05:02:53 34° 96° (E) 1,087 ? -12.7°
Drops below altitude 10° 05:06:59 10° 161° (SSE) 2,055 ? -12.0°
Sets 05:09:20 0° 171° (S) 2,950 ? -11.5°
